SL-14 DEB, 45274

Orbit data source: Space-Track

SL-14 DEB, 45274 is space debris in LEO originally from a launch on Thu, 15 Aug 1991 UTC launched from the Plesetsk Missile And Space Complex (PKMTR). Debris objects in space refer to the collection of defunct objects orbiting the Earth. Examples of debris include non-operational satellites, rocket bodies, and fragments generated from explosions, collisions, or faulty payload assembly.

Loading next visibility...
Identifier
45274, 1991-056L
Orbit
LEO
Country
Flag of CISCIS
Related business
Manufacturer
Unknown
Mission
Spacecraft
Bus & Motor
Unknown
Mass
Unknown
Launch date (UTC)
1991-08-15 (35 years ago)
Launch vehicle
Unknown
Launch site
Plesetsk Missile And Space Complex (PKMTR)
Object type
Payload
Rocket body
Debris
Shape & HBR
Unknown shape, 0.2 m
Radar Cross Section
Medium (>0.1 m² and <1 m²)

Expand to show TLE details & history
Last TLE update: 10 hours ago

TLE from 10 hours ago
0 SL-14 DEB
1 45274U 91056L   26254.57274420  .00000284  00000-0  69675-3 0  9993
2 45274  82.5336  73.7586 0027341 289.9184  69.8993 13.17789259316102
Epoch: 2026-09-11T13:44Z
TLE epoch observation values (Epoch: 2026-09-11T13:44:45.098Z)
Latitude
-0.0001°
Longitude
-123.02349°
Altitude
1,188.918 km
Speed
7.263 km/s
True Right ascension
04h 55m 02s
True Declination
0° 00' 00"
Sunlit
Object was in daylight at epoch
Visualization orbit readout
Latitude
Unknown
Longitude
Unknown
Altitude
Unknown
Speed
Unknown
Apparent Right ascension
Unknown
Apparent Declination
Unknown
Sunlit
N/A
Visualization observer readout
Local Sidereal Time
15:46:12
Azimuth
Unknown
Elevation
Unknown
Doppler factor
Unknown
Orbital elements
Apogee altitude
1,211.113 km
Perigee altitude
1,169.727 km
Semi-major axis
7,568.557 km
Eccentricity
0.00273
Inclination
82.5336°
RAAN
73.7586°
Arg. of periapsis
289.9184°
True anomaly
70.19387°
Mean anomaly
69.8993°
Eccentric anomaly
70.04655°
Mean motion
3.29628 °/min
Orbital period
109.21 mins
BSTAR
0.00069675
Loading maneuver chart data...
Computing Atmospheric mass density...
Loading historical data...
Loading historical data...
Loading historical data...
Loading historical data...
Loading historical data...
Loading historical data...
Loading historical data...

Documentation

Showing up to 5 results
|